Time,TemperatureF,DewpointF,PressureIn,WindDirection,WindDirectionDegrees,WindSpeedMPH,WindSpeedGustMPH,Humidity,HourlyPrecipIn,Conditions,Clouds,dailyrainin,SoftwareType,DateUTC
2013-01-15 00:04:00,42.0,38.0,30.16,North,360,2.0,-999.0,87,-99.99,,,-99.99,,2013-01-15 05:04:00,
2013-01-15 00:12:00,42.0,38.0,30.16,North,360,2.0,-999.0,87,-99.99,,,-99.99,,2013-01-15 05:12:00,
2013-01-15 00:22:00,41.0,38.0,30.16,North,355,3.0,-999.0,89,-99.99,,,-99.99,,2013-01-15 05:22:00,
2013-01-15 00:33:00,40.0,38.0,30.16,NNE,32,3.0,-999.0,91,-99.99,,,-99.99,,2013-01-15 05:33:00,
2013-01-15 00:42:00,40.0,38.0,30.16,NNE,32,3.0,-999.0,91,-99.99,,,-99.99,,2013-01-15 05:42:00,
2013-01-15 00:52:00,40.0,38.0,30.16,NNW,344,2.0,-999.0,91,-99.99,,,-99.99,,2013-01-15 05:52:00,
2013-01-15 01:03:00,40.0,38.0,30.16,NNE,24,2.0,-999.0,92,-99.99,,,-99.99,,2013-01-15 06:03:00,
2013-01-15 01:12:00,40.0,38.0,30.16,NNE,24,2.0,-999.0,92,-99.99,,,-99.99,,2013-01-15 06:12:00,
2013-01-15 01:22:00,39.0,37.0,30.16,NNE,27,2.0,-999.0,92,-99.99,,,-99.99,,2013-01-15 06:22:00,
2013-01-15 01:33:00,40.0,38.0,30.15,North,355,1.0,-999.0,93,-99.99,,,-99.99,,2013-01-15 06:33:00,
2013-01-15 01:43:00,40.0,38.0,30.15,North,355,1.0,-999.0,93,-99.99,,,-99.99,,2013-01-15 06:43:00,
2013-01-15 01:52:00,40.0,38.0,30.15,North,360,1.0,-999.0,93,-99.99,,,-99.99,,2013-01-15 06:52:00,
2013-01-15 02:02:00,39.0,37.0,30.16,NE,42,0.0,-999.0,94,-99.99,,,-99.99,,2013-01-15 07:02:00,
2013-01-15 02:12:00,39.0,37.0,30.16,NE,42,0.0,-999.0,94,-99.99,,,-99.99,,2013-01-15 07:12:00,
2013-01-15 02:22:00,40.0,38.0,30.16,NE,42,0.0,-999.0,94,-99.99,,,-99.99,,2013-01-15 07:22:00,
2013-01-15 02:33:00,40.0,38.0,30.14,NE,48,0.0,-999.0,94,-99.99,,,-99.99,,2013-01-15 07:33:00,
2013-01-15 02:42:00,40.0,38.0,30.14,NE,48,0.0,-999.0,94,-99.99,,,-99.99,,2013-01-15 07:42:00,
2013-01-15 02:52:00,40.0,39.0,30.14,ENE,63,0.0,-999.0,95,-99.99,,,-99.99,,2013-01-15 07:52:00,
2013-01-15 03:02:00,40.0,39.0,30.14,NNE,32,0.0,-999.0,95,-99.99,,,-99.99,,2013-01-15 08:02:00,
2013-01-15 03:12:00,40.0,39.0,30.14,NNE,32,0.0,-999.0,95,-99.99,,,-99.99,,2013-01-15 08:12:00,
2013-01-15 03:22:00,40.0,39.0,30.13,NE,37,0.0,-999.0,95,-99.99,,,-99.99,,2013-01-15 08:22:00,
2013-01-15 03:33:00,40.0,39.0,30.11,ENE,63,1.0,-999.0,95,-99.99,,,-99.99,,2013-01-15 08:33:00,
2013-01-15 03:42:00,40.0,39.0,30.11,ENE,63,1.0,-999.0,95,-99.99,,,-99.99,,2013-01-15 08:42:00,
2013-01-15 03:52:00,39.0,38.0,30.10,East,101,1.0,-999.0,95,-99.99,,,-99.99,,2013-01-15 08:52:00,
2013-01-15 04:02:00,39.0,38.0,30.11,NNE,25,0.0,-999.0,95,-99.99,,,-99.99,,2013-01-15 09:02:00,
2013-01-15 04:12:00,39.0,38.0,30.11,NNE,25,0.0,-999.0,95,-99.99,,,-99.99,,2013-01-15 09:12:00,
2013-01-15 04:22:00,39.0,38.0,30.12,NNE,24,0.0,-999.0,95,-99.99,,,-99.99,,2013-01-15 09:22:00,
2013-01-15 04:33:00,39.0,38.0,30.14,North,360,1.0,-999.0,95,-99.99,,,-99.99,,2013-01-15 09:33:00,
2013-01-15 04:42:00,39.0,38.0,30.14,North,360,1.0,-999.0,95,-99.99,,,-99.99,,2013-01-15 09:42:00,
2013-01-15 04:52:00,39.0,38.0,30.14,North,360,0.0,-999.0,95,-99.99,,,-99.99,,2013-01-15 09:52:00,
2013-01-15 05:02:00,39.0,38.0,30.13,North,360,1.0,-999.0,95,-99.99,,,-99.99,,2013-01-15 10:02:00,
2013-01-15 05:12:00,39.0,38.0,30.13,North,360,1.0,-999.0,95,-99.99,,,-99.99,,2013-01-15 10:12:00,
2013-01-15 05:22:00,39.0,38.0,30.16,NNW,348,2.0,-999.0,95,-99.99,,,-99.99,,2013-01-15 10:22:00,
2013-01-15 05:32:00,38.0,37.0,30.14,ENE,60,2.0,-999.0,95,-99.99,,,-99.99,,2013-01-15 10:32:00,
2013-01-15 05:42:00,38.0,37.0,30.14,ENE,60,2.0,-999.0,95,-99.99,,,-99.99,,2013-01-15 10:42:00,
2013-01-15 05:52:00,38.0,36.0,30.14,East,85,1.0,-999.0,94,-99.99,,,-99.99,,2013-01-15 10:52:00,
2013-01-15 06:03:00,38.0,36.0,30.12,ESE,119,1.0,-999.0,94,-99.99,,,-99.99,,2013-01-15 11:03:00,
2013-01-15 06:12:00,38.0,36.0,30.12,ESE,119,1.0,-999.0,94,-99.99,,,-99.99,,2013-01-15 11:12:00,
2013-01-15 06:23:00,38.0,37.0,30.13,SE,136,0.0,-999.0,95,-99.99,,,-99.99,,2013-01-15 11:23:00,
2013-01-15 06:33:00,38.0,37.0,30.15,North,11,0.0,-999.0,95,-99.99,,,-99.99,,2013-01-15 11:33:00,
2013-01-15 06:43:00,38.0,37.0,30.15,North,11,0.0,-999.0,95,-99.99,,,-99.99,,2013-01-15 11:43:00,
2013-01-15 06:52:00,38.0,37.0,30.16,NE,34,0.0,-999.0,95,-99.99,,,-99.99,,2013-01-15 11:52:00,
2013-01-15 07:03:00,38.0,37.0,30.16,NNW,327,2.0,-999.0,95,-99.99,,,-99.99,,2013-01-15 12:03:00,
2013-01-15 07:12:00,38.0,37.0,30.16,NNW,327,2.0,-999.0,95,-99.99,,,-99.99,,2013-01-15 12:12:00,
2013-01-15 07:22:00,38.0,37.0,30.16,NNE,15,1.0,-999.0,95,-99.99,,,-99.99,,2013-01-15 12:22:00,
2013-01-15 07:33:00,38.0,36.0,30.16,NNE,20,1.0,-999.0,94,-99.99,,,-99.99,,2013-01-15 12:33:00,
2013-01-15 07:43:00,38.0,36.0,30.16,NNE,20,1.0,-999.0,94,-99.99,,,-99.99,,2013-01-15 12:43:00,
2013-01-15 07:53:00,38.0,36.0,30.17,NNW,344,2.0,-999.0,94,-99.99,,,-99.99,,2013-01-15 12:53:00,
2013-01-15 08:03:00,38.0,36.0,30.19,North,349,0.0,-999.0,94,-99.99,,,-99.99,,2013-01-15 13:03:00,
2013-01-15 08:12:00,38.0,36.0,30.19,North,349,0.0,-999.0,94,-99.99,,,-99.99,,2013-01-15 13:12:00,
2013-01-15 08:23:00,38.0,36.0,30.19,NE,53,1.0,-999.0,94,-99.99,,,-99.99,,2013-01-15 13:23:00,
2013-01-15 08:33:00,38.0,36.0,30.20,NNE,13,1.0,-999.0,94,-99.99,,,-99.99,,2013-01-15 13:33:00,
2013-01-15 08:43:00,38.0,36.0,30.20,NNE,13,1.0,-999.0,94,-99.99,,,-99.99,,2013-01-15 13:43:00,
2013-01-15 08:53:00,38.0,36.0,30.21,NE,40,1.0,-999.0,93,-99.99,,,-99.99,,2013-01-15 13:53:00,
2013-01-15 09:03:00,38.0,36.0,30.21,NNW,343,2.0,-999.0,93,-99.99,,,-99.99,,2013-01-15 14:03:00,
2013-01-15 09:13:00,38.0,36.0,30.21,NNW,343,2.0,-999.0,93,-99.99,,,-99.99,,2013-01-15 14:13:00,
2013-01-15 09:23:00,38.0,36.0,30.22,North,355,2.0,-999.0,92,-99.99,,,-99.99,,2013-01-15 14:23:00,
2013-01-15 09:33:00,38.0,36.0,30.22,North,355,2.0,-999.0,92,-99.99,,,-99.99,,2013-01-15 14:33:00,
2013-01-15 09:43:00,38.0,36.0,30.22,North,355,2.0,-999.0,92,-99.99,,,-99.99,,2013-01-15 14:43:00,
2013-01-15 09:53:00,38.0,36.0,30.22,North,355,1.0,-999.0,92,-99.99,,,-99.99,,2013-01-15 14:53:00,
2013-01-15 10:03:00,38.0,36.0,30.22,NNE,12,2.0,-999.0,91,-99.99,,,-99.99,,2013-01-15 15:03:00,
2013-01-15 10:12:00,38.0,36.0,30.22,NNE,12,2.0,-999.0,91,-99.99,,,-99.99,,2013-01-15 15:12:00,
2013-01-15 10:23:00,38.0,36.0,30.22,ENE,59,1.0,-999.0,91,-99.99,,,-99.99,,2013-01-15 15:23:00,
2013-01-15 10:33:00,38.0,35.0,30.23,North,5,1.0,-999.0,89,-99.99,,,-99.99,,2013-01-15 15:33:00,
2013-01-15 10:43:00,38.0,35.0,30.23,North,5,1.0,-999.0,89,-99.99,,,-99.99,,2013-01-15 15:43:00,
2013-01-15 10:53:00,39.0,36.0,30.22,NNE,23,1.0,-999.0,88,-99.99,,,-99.99,,2013-01-15 15:53:00,
2013-01-15 11:03:00,39.0,35.0,30.22,North,355,2.0,-999.0,87,-99.99,,,-99.99,,2013-01-15 16:03:00,
2013-01-15 11:12:00,39.0,35.0,30.22,North,355,2.0,-999.0,87,-99.99,,,-99.99,,2013-01-15 16:12:00,
2013-01-15 11:23:00,39.0,35.0,30.20,NNE,12,2.0,-999.0,86,-99.99,,,-99.99,,2013-01-15 16:23:00,
2013-01-15 11:33:00,39.0,35.0,30.22,North,355,2.0,-999.0,85,-99.99,,,-99.99,,2013-01-15 16:33:00,
2013-01-15 11:43:00,39.0,35.0,30.22,North,355,2.0,-999.0,85,-99.99,,,-99.99,,2013-01-15 16:43:00,
2013-01-15 11:53:00,39.0,35.0,30.20,NNW,332,2.0,-999.0,84,-99.99,,,-99.99,,2013-01-15 16:53:00,
2013-01-15 12:03:00,39.0,34.0,30.20,North,355,1.0,-999.0,83,-99.99,,,-99.99,,2013-01-15 17:03:00,
2013-01-15 12:12:00,39.0,34.0,30.20,North,355,1.0,-999.0,83,-99.99,,,-99.99,,2013-01-15 17:12:00,
2013-01-15 12:23:00,39.0,34.0,30.20,North,9,2.0,-999.0,81,-99.99,,,-99.99,,2013-01-15 17:23:00,
2013-01-15 12:33:00,39.0,33.0,30.18,NE,35,2.0,-999.0,80,-99.99,,,-99.99,,2013-01-15 17:33:00,
2013-01-15 12:43:00,39.0,33.0,30.18,NE,35,2.0,-999.0,80,-99.99,,,-99.99,,2013-01-15 17:43:00,
2013-01-15 12:53:00,39.0,33.0,30.17,North,11,1.0,-999.0,80,-99.99,,,-99.99,,2013-01-15 17:53:00,
2013-01-15 13:03:00,39.0,33.0,30.15,ENE,60,2.0,-999.0,78,-99.99,,,-99.99,,2013-01-15 18:03:00,
2013-01-15 13:13:00,39.0,33.0,30.15,ENE,60,2.0,-999.0,78,-99.99,,,-99.99,,2013-01-15 18:13:00,
2013-01-15 13:23:00,39.0,32.0,30.16,NW,323,1.0,-999.0,77,-99.99,,,-99.99,,2013-01-15 18:23:00,
2013-01-15 13:33:00,39.0,33.0,30.17,NW,326,1.0,-999.0,78,-99.99,,,-99.99,,2013-01-15 18:33:00,
2013-01-15 13:43:00,39.0,33.0,30.17,NW,326,1.0,-999.0,78,-99.99,,,-99.99,,2013-01-15 18:43:00,
2013-01-15 13:54:00,39.0,32.0,30.16,NNE,14,1.0,-999.0,76,-99.99,,,-99.99,,2013-01-15 18:54:00,
2013-01-15 14:03:00,39.0,32.0,30.15,North,355,1.0,-999.0,76,-99.99,,,-99.99,,2013-01-15 19:03:00,
2013-01-15 14:13:00,39.0,32.0,30.15,North,355,1.0,-999.0,76,-99.99,,,-99.99,,2013-01-15 19:13:00,
2013-01-15 14:23:00,39.0,31.0,30.15,North,5,1.0,-999.0,74,-99.99,,,-99.99,,2013-01-15 19:23:00,
2013-01-15 14:33:00,39.0,31.0,30.15,North,5,1.0,-999.0,74,-99.99,,,-99.99,,2013-01-15 19:33:00,
2013-01-15 14:43:00,39.0,31.0,30.15,North,5,1.0,-999.0,74,-99.99,,,-99.99,,2013-01-15 19:43:00,
2013-01-15 14:53:00,39.0,31.0,30.16,NE,41,1.0,-999.0,73,-99.99,,,-99.99,,2013-01-15 19:53:00,
2013-01-15 15:03:00,40.0,32.0,30.16,North,5,1.0,-999.0,73,-99.99,,,-99.99,,2013-01-15 20:03:00,
2013-01-15 15:12:00,40.0,32.0,30.16,North,5,1.0,-999.0,73,-99.99,,,-99.99,,2013-01-15 20:12:00,
2013-01-15 15:23:00,40.0,32.0,30.15,NNE,30,0.0,-999.0,74,-99.99,,,-99.99,,2013-01-15 20:23:00,
2013-01-15 15:31:00,40.0,32.0,30.14,East,100,1.0,-999.0,72,-99.99,,,-99.99,,2013-01-15 20:31:00,
2013-01-15 15:33:00,40.0,32.0,30.14,ENE,73,0.0,-999.0,73,-99.99,,,-99.99,,2013-01-15 20:33:00,
2013-01-15 15:43:00,40.0,32.0,30.14,ENE,73,0.0,-999.0,73,-99.99,,,-99.99,,2013-01-15 20:43:00,
2013-01-15 15:53:00,40.0,32.0,30.14,East,100,1.0,-999.0,72,-99.99,,,-99.99,,2013-01-15 20:53:00,
2013-01-15 16:03:00,40.0,32.0,30.14,East,100,1.0,-999.0,72,-99.99,,,-99.99,,2013-01-15 21:03:00,
2013-01-15 16:13:00,40.0,32.0,30.14,East,100,1.0,-999.0,72,-99.99,,,-99.99,,2013-01-15 21:13:00,
2013-01-15 16:23:00,40.0,32.0,30.14,East,100,1.0,-999.0,72,-99.99,,,-99.99,,2013-01-15 21:23:00,